User: anonymous   Login
Location: Unspecified
(0.0000°N, 0.0000°E)
Time: 07:30:50
(UTC+01:00)
Language:

deb Ariane - Orbit

View from above orbital plane
View from above orbital plane
View from above satellite
View from above satellite

Ground track
Ground track

The orbit data is extracted from the following two-line orbital elements,

1 25668U 92060E   15 63.70222538  .04516240  00000-0  80862-3 0  9997
2 25668 007.4505 141.2326 2319084 039.0332 335.7573 11.13173975221990
Epoch (UTC): 04 March 2015 16:51:12
Eccentricity: 0.2319084
inclination: 7.4505°
perigee height: 130 km
apogee height: 4059 km
right ascension of ascending node: 141.2326°
argument of perigee: 39.0332°
revolutions per day: 11.13173975
mean anomaly at epoch: 335.7573°
orbit number at epoch: 22199

The dashed part of the orbit path shows where the satellite is in the earth's shadow,  

DLR